Change the Weather History Date:

Thursday, February 28, 2013

  Actual Average Record
Temperature  
Mean Temperature 74 °F -  
Max Temperature 77 °F 90 °F 100 °F (2003)
Min Temperature 71 °F 65 °F 60 °F (2008)
Cooling Degree Days 9    
Growing Degree Days 24 (Base 50)    
Moisture  
Dew Point 65 °F    
Average Humidity 74    
Maximum Humidity 88    
Minimum Humidity 38    
Precipitation  
Precipitation 0.00 in - - ()
Sea Level Pressure  
Sea Level Pressure 29.97 in    
Wind  
Wind Speed 7 mph ()    
Max Wind Speed 17 mph    
Max Gust Speed 22 mph    
Visibility 5.9 miles    
Events Rain    
Averages and records for this station are not official NWS values.
T = Trace of Precipitation, MM = Missing Value Source: Averaged Metar Reports

Daily Weather History Graph

Daily Weather History Graph

Search for Another Location

Airport or City:

Trip Planner

Search our weather history database for the weather conditions in past years. The results will help you decide how hot, cold, wet, or windy it might be!

Date:

Astronomy

Feb. 28, 2013 Rise Set
Actual Time 6:19 AM CST 6:02 PM CST
Civil Twilight 5:57 AM CST 6:25 PM CST
Nautical Twilight 5:31 AM CST 6:51 PM CST
Astronomical Twilight 5:05 AM CST 7:16 PM CST
Moon 8:55 PM CST (2/28) 7:58 AM CST (2/28)
Length of Visible Light 12h 27m
Length of Day
11h 43m
Waning Gibbous, 90% of the Moon is Illuminated
Feb 28
Waning Gibbous
Mar 4
Last Quarter
Mar 11
New
Mar 19
First Quarter
Mar 27
Full

Hourly Weather History & Observations

Time (CST) Temp. Heat Index Dew Point Humidity Pressure Visibility Wind Dir Wind Speed Gust Speed Precip Events Conditions
12:48 AM 75.2 °F - 68.0 °F 78% 29.95 in 7.0 mi NNE 5.8 mph - N/A   Mostly Cloudy
1:51 AM 75.2 °F - 68.0 °F 78% 29.93 in 7.0 mi Calm Calm - N/A   Mostly Cloudy
2:51 AM 75.2 °F - 68.0 °F 78% 29.88 in 7.0 mi NE 4.6 mph - N/A   Mostly Cloudy
3:52 AM 75.2 °F - 68.0 °F 78% 29.92 in 7.0 mi North 5.8 mph - N/A   Mostly Cloudy
4:57 AM 75.2 °F - 68.0 °F 78% 29.92 in 7.0 mi North 5.8 mph - N/A   Mostly Cloudy
5:50 AM 74 °F - 71 °F 87% 29.94 in 3 mi NNE 8.9 mph - -   Mostly Cloudy
5:50 AM 73.4 °F - 68.0 °F 83% 29.95 in 7.0 mi North 11.5 mph - N/A   Mostly Cloudy
6:10 AM 73.4 °F - 68.0 °F 83% 29.94 in 7.0 mi NNE 10.4 mph - N/A   Mostly Cloudy
6:47 AM 73.4 °F - 68.0 °F 83% 29.95 in 5.0 mi North 8.1 mph - N/A   Overcast
7:06 AM 73.4 °F - 68.0 °F 83% 29.96 in 2.0 mi North 6.9 mph 18.4 mph N/A Rain Light Rain
7:50 AM 71.6 °F - 68.0 °F 88% 29.97 in 4.0 mi NNE 10.4 mph - N/A   Overcast
8:45 AM 71.6 °F - 68.0 °F 88% 30.01 in 3.0 mi NNE 9.2 mph - N/A Rain Light Rain
8:50 AM 74 °F - 69 °F 79% 30.01 in 6 mi North 6.7 mph - - Rain Light Drizzle
9:33 AM 73.4 °F - 68.0 °F 83% 30.00 in 5.0 mi North 11.5 mph - N/A   Overcast
9:51 AM 73.4 °F - 68.0 °F 83% 30.01 in 5.0 mi NNE 13.8 mph - N/A   Overcast
10:48 AM 73.4 °F - 66.2 °F 78% 30.01 in 6.0 mi North 4.6 mph 21.9 mph N/A   Overcast
11:45 AM 73.4 °F - 62.6 °F 69% 30.01 in 7.0 mi North 8.1 mph 19.6 mph N/A   Overcast
11:50 AM 75 °F - 66 °F 68% 30.00 in 6 mi NNE 8.9 mph - -   Overcast
12:49 PM 71.6 °F - 62.6 °F 73% 29.98 in 5.0 mi NE 17.3 mph - N/A Rain Light Rain
1:50 PM 73.4 °F - 60.8 °F 65% 29.96 in 6.0 mi NE 9.2 mph - N/A   Overcast
2:50 PM 75 °F - 65 °F 64% 29.95 in 6 mi NNE 8.9 mph - -   Overcast
2:51 PM 75.2 °F - 60.8 °F 61% 29.95 in 7.0 mi North 11.5 mph - N/A   Overcast
3:52 PM 73.4 °F - 60.8 °F 65% 29.94 in 7.0 mi North 9.2 mph 20.7 mph N/A   Overcast
4:52 PM 91.4 °F 92.1 °F 62.6 °F 38% 29.94 in 7.0 mi North 6.9 mph 18.4 mph N/A   Overcast
5:50 PM 74 °F - 65 °F 66% 29.96 in 6 mi NNE 6.7 mph - -   Partly Cloudy
5:50 PM 73.4 °F - 60.8 °F 65% 29.98 in 7.0 mi NNE 6.9 mph - N/A   Overcast
6:51 PM 71.6 °F - 60.8 °F 69% 29.96 in 7.0 mi North 6.9 mph - N/A   Overcast
7:50 PM 71.6 °F - 60.8 °F 69% 29.98 in 7.0 mi NNE 5.8 mph - N/A   Overcast
8:50 PM 73 °F - 68 °F 79% 30.00 in 3 mi NNE 6.7 mph - -   Mostly Cloudy
8:51 PM 71.6 °F - 60.8 °F 69% 30.00 in 7.0 mi North 5.8 mph - N/A   Overcast
10:45 PM 71.6 °F - 60.8 °F 69% 30.00 in 7.0 mi North 5.8 mph - N/A   Overcast
11:49 PM 71.6 °F - 62.6 °F 73% 30.00 in 7.0 mi North 11.5 mph - N/A   Mostly Cloudy